Marathon, FL (33050)

5:46 AM EDT on August 24, 2017 (GMT -0400)
Little Venice House Rooftop | | Change Station

Elev 8 ft 24.73 °N, 81.03 °W | Updated 4 seconds ago

Partly Cloudy
Partly Cloudy
83.0 °F
Feels Like 93 °F
N
0.0
Wind Variable Wind from South
Gusts 7.0 mph

Today
High -- | Low -- °F
--% Chance of Precip.
Yesterday
High -- | Low -- °F
Precip. -- in
Pressure 29.82 in
Visibility 10.0 miles
Clouds Scattered Clouds 2200 ft
Scattered Clouds 2700 ft
Mostly Cloudy 5500 ft
Heat Index 93 °F
Dew Point 78 °F
Humidity 84%
Rainfall 0.85 in
Snow Depth Not available.
7:02 AM 7:50 PM
Waxing Crescent, 8% visible
METAR KNQX 240853Z AUTO 21009KT 10SM SCT022 SCT027 BKN055 28/27 A2982 RMK AO2 SLP096 T02830267 56009 $
Pressure 29.82 in
Visibility 10.0 miles
Clouds Scattered Clouds 2200 ft
Scattered Clouds 2700 ft
Mostly Cloudy 5500 ft
Heat Index 93 °F
Dew Point 78 °F
Humidity 84%
Rainfall 0.85 in
Snow Depth Not available.
7:02 AM 7:50 PM
Waxing Crescent, 8% visible
METAR KNQX 240853Z AUTO 21009KT 10SM SCT022 SCT027 BKN055 28/27 A2982 RMK AO2 SLP096 T02830267 56009 $

Get Severe Weather Alerts

Thanks for signing up!

Be on the lookout for a verification email in your inbox.

You'll start receiving the daily forecast at 6 AM.

×

10-Day Weather Forecast

Almanac

Astronomy

Aug. 24, 2017 Rise Set
Actual Time
Civil Twilight
Nautical Twilight
Astronomical Twilight
Moon
Length of Visible Light
Length of Day
Tomorrow will be .
, % of the Moon is Illuminated

Today's Extremes

State Highs State Lows

Community

WunderPhotos

Category 6

Welcome to Category 6. This is the collective home for Weather Underground's featured writeups by Dr. Jeff Masters (right), Bob Henson (left), Chris Burt, and other regular contributors.

Nearby

Air Quality

  Air Quality AQ Index Pollutant
Not available.

Snow Depth

Station Depth Elevation

Earthquake Activity

City Distance Mag. Time & Date
Minimum magnitude displayed is 2.5.

Coastal Water Temperatures

Place Temperature

Stations

Nearby Weather Stations

Station Location Temp. Windchill Dew Point Humidity Wind Precip. Elev Updated Type
                   

Watches & Warnings

There are currently no watches in effect.